User: anonymous   Login
Location: Gugi
(45.4667°N, 11.1000°E)
Time: 23:59:38
(UTC+00:00)
Language:

Cosmos 2263 Rocket - Orbit

View from above orbital plane
View from above orbital plane
View from above satellite
View from above satellite

Ground track
Ground track

The orbit data is extracted from the following two-line orbital elements,

1 22803U 93059B   20028.48123009  .00000230  00000-0  13863-3 0  9999
2 22803  70.9903  36.3488 0016949   2.8759 357.2459 14.16816963363593
Epoch (UTC): 28 January 2020 11:32:58
Eccentricity: 0.0016949
inclination: 70.9903°
perigee height: 824 km
apogee height: 848 km
right ascension of ascending node: 36.3488°
argument of perigee: 2.8759°
revolutions per day: 14.16816963
mean anomaly at epoch: 357.2459°
orbit number at epoch: 36359

The dashed part of the orbit path shows where the satellite is in the earth's shadow,  

DLR